When you browse on this site, cookies collect data to enhance your experience and personalize the content and advertising you see.
Visit our Privacy Policy to learn more. By continuing to use the site, you agree to this use of cookies and data.
  • En España
  • Lista de países
  • Para 7 días
  • Temperatura del agua
  • Mapa Satelital
  • El tiempo en el mapa
  • Informadores
  • user-avatar
    Iniciar sesión

    Tiempo cada hora Dzhyakovo

    Hoy, 21 Abril, Domingo

    Tiempo Temperatura Precipitaciones Viento Presión Humedad
    00:00 +11°C° 0 mm 1 mps 761 mmHg 54%
    01:00 +11°C° 0 mm 1 mps 761 mmHg 53%
    02:00 +10°C° 0 mm 1 mps 760 mmHg 55%
    03:00 +10°C° 0 mm 1 mps 760 mmHg 56%
    04:00 +9°C° 0 mm 1 mps 760 mmHg 57%
    05:00 +11°C° 0 mm 1 mps 760 mmHg 57%
    06:00 +12°C° 0 mm 2 mps 759 mmHg 58%
    07:00 +13°C° 0 mm 2 mps 760 mmHg 57%
    08:00 +15°C° 0 mm 2 mps 759 mmHg 52%
    09:00 +17°C° 0 mm 2 mps 759 mmHg 47%
    10:00 +19°C° 0 mm 2 mps 759 mmHg 42%
    11:00 +20°C° 0 mm 2 mps 758 mmHg 39%
    12:00 +21°C° 0 mm 2 mps 758 mmHg 36%
    13:00 +23°C° 0 mm 1 mps 758 mmHg 31%
    14:00 +23°C° 0 mm 1 mps 757 mmHg 31%
    15:00 +23°C° 0 mm 1 mps 757 mmHg 32%
    16:00 +23°C° 0 mm 1 mps 756 mmHg 32%
    17:00 +20°C° 0 mm 1 mps 756 mmHg 36%
    18:00 +18°C° 0 mm 1 mps 756 mmHg 41%
    19:00 +15°C° 0 mm 1 mps 755 mmHg 45%
    20:00 +14°C° 0 mm 1 mps 755 mmHg 47%
    21:00 +14°C° 0 mm 1 mps 755 mmHg 49%
    22:00 +13°C° 0 mm 1 mps 755 mmHg 51%
    23:00 +12°C° 0 mm 1 mps 755 mmHg 53%

    Mañana, 22 Abril, Lunes

    Tiempo Temperatura Precipitaciones Viento Presión Humedad
    00:00 +12°C° 0 mm 1 mps 755 mmHg 56%
    01:00 +11°C° 0 mm 1 mps 755 mmHg 59%
    02:00 +11°C° 0 mm 1 mps 755 mmHg 61%
    03:00 +10°C° 0 mm 1 mps 754 mmHg 63%
    04:00 +10°C° 0 mm 1 mps 754 mmHg 65%
    05:00 +11°C° 0 mm 1 mps 754 mmHg 64%
    06:00 +12°C° 0 mm 2 mps 754 mmHg 64%
    07:00 +13°C° 0 mm 2 mps 754 mmHg 64%
    08:00 +15°C° 0 mm 2 mps 753 mmHg 58%
    09:00 +17°C° 0 mm 2 mps 753 mmHg 51%
    10:00 +20°C° 0 mm 2 mps 753 mmHg 45%
    11:00 +21°C° 0 mm 2 mps 752 mmHg 42%
    12:00 +21°C° 0 mm 2 mps 752 mmHg 38%
    13:00 +22°C° 0 mm 3 mps 751 mmHg 35%
    14:00 +22°C° 0 mm 3 mps 751 mmHg 36%
    15:00 +22°C° 0 mm 3 mps 750 mmHg 36%
    16:00 +23°C° 0 mm 2 mps 750 mmHg 37%
    17:00 +20°C° 0 mm 3 mps 750 mmHg 43%
    18:00 +18°C° 0 mm 3 mps 750 mmHg 49%
    19:00 +16°C° 0 mm 3 mps 750 mmHg 55%
    20:00 +15°C° 0 mm 4 mps 750 mmHg 59%
    21:00 +14°C° 0 mm 6 mps 750 mmHg 62%
    22:00 +14°C° 0 mm 7 mps 750 mmHg 66%
    23:00 +12°C° 0 mm 7 mps 750 mmHg 66%

    Pasado mañana, 23 Abril, Martes

    Tiempo Temperatura Precipitaciones Viento Presión Humedad
    00:00 +13°C° 0 mm 6 mps 750 mmHg 67%
    01:00 +13°C° 0 mm 6 mps 750 mmHg 68%
    02:00 +13°C° 0.2 mm 6 mps 750 mmHg 73%
    03:00 +11°C° 0.2 mm 6 mps 750 mmHg 78%
    04:00 +11°C° 0.2 mm 6 mps 750 mmHg 82%
    05:00 +11°C° 0.6 mm 7 mps 750 mmHg 83%
    06:00 +10°C° 0.6 mm 8 mps 750 mmHg 83%
    07:00 +10°C° 0.6 mm 9 mps 750 mmHg 84%
    08:00 +11°C° 0 mm 9 mps 750 mmHg 78%
    09:00 +13°C° 0 mm 9 mps 750 mmHg 72%
    10:00 +16°C° 0 mm 10 mps 750 mmHg 66%
    11:00 +17°C° 0 mm 10 mps 750 mmHg 63%
    12:00 +19°C° 0 mm 9 mps 750 mmHg 60%
    13:00 +21°C° 0 mm 9 mps 750 mmHg 57%
    14:00 +21°C° 0 mm 9 mps 749 mmHg 59%
    15:00 +19°C° 0 mm 9 mps 749 mmHg 60%
    16:00 +19°C° 0 mm 9 mps 749 mmHg 62%
    17:00 +17°C° 0 mm 9 mps 749 mmHg 65%
    18:00 +16°C° 0 mm 9 mps 749 mmHg 67%
    19:00 +15°C° 0 mm 8 mps 750 mmHg 69%
    20:00 +15°C° 0 mm 8 mps 750 mmHg 69%
    21:00 +14°C° 0 mm 7 mps 751 mmHg 69%
    22:00 +14°C° 0 mm 7 mps 751 mmHg 69%
    23:00 +14°C° 0 mm 7 mps 752 mmHg 71%

    24 Abril, Miércoles

    Tiempo Temperatura Precipitaciones Viento Presión Humedad
    00:00 +14°C° 0 mm 7 mps 752 mmHg 73%
    01:00 +13°C° 0 mm 6 mps 752 mmHg 75%
    02:00 +13°C° 0 mm 6 mps 752 mmHg 77%
    03:00 +11°C° 0 mm 6 mps 753 mmHg 79%
    04:00 +12°C° 0 mm 5 mps 753 mmHg 81%
    05:00 +13°C° 0 mm 5 mps 753 mmHg 79%
    06:00 +14°C° 0 mm 5 mps 754 mmHg 78%
    07:00 +14°C° 0 mm 5 mps 754 mmHg 76%
    08:00 +17°C° 0 mm 5 mps 754 mmHg 69%
    09:00 +20°C° 0 mm 5 mps 754 mmHg 62%
    10:00 +22°C° 0 mm 5 mps 755 mmHg 55%
    11:00 +23°C° 0 mm 5 mps 755 mmHg 52%
    12:00 +25°C° 0 mm 4 mps 754 mmHg 50%
    13:00 +26°C° 0 mm 4 mps 754 mmHg 47%
    14:00 +26°C° 0 mm 4 mps 754 mmHg 48%
    15:00 +26°C° 0 mm 3 mps 754 mmHg 48%
    16:00 +26°C° 0 mm 3 mps 754 mmHg 48%
    17:00 +24°C° 0.2 mm 3 mps 754 mmHg 57%
    18:00 +22°C° 0.2 mm 4 mps 754 mmHg 65%
    19:00 +20°C° 0.2 mm 5 mps 754 mmHg 73%
    20:00 +17°C° 0 mm 5 mps 755 mmHg 76%
    21:00 +17°C° 0 mm 4 mps 755 mmHg 80%
    22:00 +15°C° 0 mm 4 mps 755 mmHg 83%
    23:00 +14°C° 0 mm 3 mps 755 mmHg 85%

    25 Abril, Jueves

    Tiempo Temperatura Precipitaciones Viento Presión Humedad
    00:00 +14°C° 0 mm 3 mps 755 mmHg 86%
    01:00 +13°C° 0 mm 3 mps 755 mmHg 87%
    02:00 +13°C° 0 mm 3 mps 755 mmHg 87%
    03:00 +12°C° 0 mm 3 mps 755 mmHg 87%
    04:00 +12°C° 0 mm 3 mps 755 mmHg 87%
    05:00 +13°C° 0 mm 3 mps 755 mmHg 83%
    06:00 +14°C° 0 mm 3 mps 756 mmHg 79%
    07:00 +17°C° 0 mm 3 mps 756 mmHg 75%
    08:00 +19°C° 0 mm 4 mps 756 mmHg 69%
    09:00 +21°C° 0 mm 4 mps 756 mmHg 63%
    10:00 +23°C° 0 mm 4 mps 756 mmHg 57%
    11:00 +25°C° 0 mm 4 mps 755 mmHg 53%
    12:00 +26°C° 0 mm 4 mps 755 mmHg 50%
    13:00 +28°C° 0 mm 4 mps 755 mmHg 46%
    14:00 +27°C° 0 mm 4 mps 754 mmHg 49%
    15:00 +27°C° 0 mm 4 mps 754 mmHg 52%
    16:00 +27°C° 0 mm 3 mps 754 mmHg 56%
    17:00 +25°C° 0 mm 3 mps 754 mmHg 62%
    18:00 +22°C° 0 mm 3 mps 754 mmHg 69%
    19:00 +21°C° 0 mm 3 mps 754 mmHg 76%
    20:00 +20°C° 0 mm 3 mps 754 mmHg 77%
    21:00 +19°C° 0 mm 3 mps 754 mmHg 79%
    22:00 +18°C° 0 mm 3 mps 754 mmHg 80%
    23:00 +17°C° 0.4 mm 3 mps 754 mmHg 84%

    26 Abril, Viernes

    Tiempo Temperatura Precipitaciones Viento Presión Humedad
    00:00 +17°C° 0.4 mm 3 mps 754 mmHg 88%
    01:00 +16°C° 0.4 mm 3 mps 754 mmHg 92%
    02:00 +16°C° 0 mm 3 mps 753 mmHg 92%
    03:00 +15°C° 0 mm 2 mps 753 mmHg 91%
    04:00 +15°C° 0 mm 2 mps 753 mmHg 91%
    05:00 +16°C° 0 mm 2 mps 753 mmHg 86%
    06:00 +17°C° 0 mm 2 mps 753 mmHg 81%
    07:00 +18°C° 0 mm 2 mps 753 mmHg 76%
    08:00 +20°C° 0 mm 2 mps 753 mmHg 68%
    09:00 +23°C° 0 mm 2 mps 753 mmHg 60%
    10:00 +25°C° 0 mm 2 mps 753 mmHg 52%
    11:00 +25°C° 0 mm 2 mps 753 mmHg 49%
    12:00 +26°C° 0 mm 2 mps 752 mmHg 47%
    13:00 +27°C° 0 mm 2 mps 752 mmHg 45%
    14:00 +27°C° 0 mm 2 mps 751 mmHg 46%
    15:00 +28°C° 0 mm 2 mps 751 mmHg 47%
    16:00 +28°C° 0 mm 2 mps 751 mmHg 47%
    17:00 +26°C° 0.7 mm 2 mps 751 mmHg 57%
    18:00 +23°C° 0.7 mm 2 mps 751 mmHg 67%
    19:00 +20°C° 0.7 mm 3 mps 751 mmHg 77%
    20:00 +19°C° 1.5 mm 3 mps 751 mmHg 78%
    21:00 +18°C° 1.5 mm 3 mps 752 mmHg 80%
    22:00 +18°C° 1.5 mm 4 mps 753 mmHg 81%
    23:00 +15°C° 0.6 mm 4 mps 753 mmHg 83%
    Mostrar más